Temp
55 55 55 55 55 55 54 54 55 55 55 55 56 56 57 56 55 47 43 43 42 40 41 44 46 39 38 38 33 37 39 41 41 34 33 34 39 44 43 47 39 39 38 39 43 43 43 60 59 52 54 58 63 64
55 54 54 54 54 54 54 54 54 54 55 55 56 56 56 55 55 51 41 45 47 42 41 43 47 49 47 46 38 36 35 36 39 35 35 35 37 42 40 41 49 39 41 36 41 44 53 55 55 57 58 58 63 62
54 54 54 54 54 54 54 54 54 54 55 55 55 56 56 54 54 53 44 43 41 38 39 36 40 48 48 50 49 36 37 42 41 42 36 35 34 39 37 41 44 47 47 42 44 48 52 54 58 60 61 61 65 67
54 54 54 54 54 54 54 54 54 54 54 55 55 55 55 54 54 53 46 45 44 41 36 35 48 44 50 47 47 49 48 43 41 41 37 34 34 42 40 43 42 48 49 45 43 48 52 56 58 58 60 63 63 68
54 54 53 53 53 54 54 54 54 54 54 54 55 55 55 54 53 51 49 47 48 41 36 35 42 45 43 46 47 47 45 39 38 37 34 34 36 40 41 42 37 49 48 44 41 48 48 51 57 60 60 61 62 65
53 53 53 54 53 54 54 54 54 54 54 54 54 54 54 53 52 47 41 48 49 46 39 35 39 41 43 45 46 44 43 39 39 37 35 36 41 40 36 33 46 50 50 53 49 53 53 55 58 60 59 61 65 65
53 53 54 54 54 54 54 53 53 54 53 53 53 53 53 52 50 43 41 46 50 49 41 36 35 43 46 43 41 42 42 42 41 37 36 38 39 40 33 33 45 52 52 54 57 57 55 56 54 59 60 63 64 66
53 53 53 54 54 54 53 53 53 53 53 53 53 52 52 52 51 46 49 51 50 44 42 34 35 39 48 42 39 39 40 38 39 39 37 37 37 36 32 43 48 53 54 53 55 58 58 60 56 58 60 62 61 62
53 53 53 54 54 53 53 53 54 53 52 52 52 53 50 48 44 46 53 52 48 43 36 36 32 31 45 43 45 42 39 34 39 36 36 38 36 32 40 44 45 49 48 48 52 54 55 55 55 56 57 59 58 60
53 53 53 53 53 53 52 53 53 52 52 52 49 46 43 46 54 52 46 41 40 40 39 34 40 35 42 40 41 41 42 39 33 37 39 34 40 49 51 47 45 48 51 54 50 49 52 52 54 54 55 57 59 60
53 53 53 53 53 52 52 52 52 52 52 49 46 44 48 53 47 43 37 35 35 33 35 36 37 35 43 37 37 41 38 40 34 39 38 34 31 43 51 52 55 55 52 51 53 54 53 53 55 54 54 56 59 60
52 52 52 52 52 52 52 52 52 47 47 48 47 50 48 44 41 36 34 34 32 32 36 34 37 39 40 43 39 41 37 38 33 41 38 35 40 42 43 45 46 46 49 54 55 55 56 57 57 54 53 54 58 60
52 52 52 52 52 52 53 52 53 52 51 50 47 45 43 42 37 36 35 35 32 36 36 37 37 40 41 41 40 38 34 35 38 35 34 38 43 46 47 48 50 48 48 49 50 53 56 56 58 54 55 57 59 59
52 52 52 52 52 52 53 53 53 51 48 46 46 39 43 42 43 43 44 45 47 41 38 39 40 39 41 37 37 32 35 33 31 31 32 39 42 44 48 49 47 46 47 48 49 51 52 54 54 56 57 59 59 59
52 52 52 53 55 54 53 53 53 48 47 48 49 40 44 49 48 49 49 48 46 43 41 41 41 41 37 34 34 33 32 32 32 32 35 43 47 49 48 45 46 44 44 46 48 47 50 52 53 54 57 57 58 59
52 52 53 54 53 53 52 52 50 49 50 48 47 45 46 44 48 52 53 50 43 43 45 43 41 39 39 38 36 33 32 32 36 43 46 48 47 49 50 51 49 46 45 47 48 47 49 51 54 58 58 55 57 58
52 49 54 53 52 52 52 51 52 53 50 49 46 46 45 43 43 44 45 47 49 44 42 45 43 42 45 41 40 41 41 41 46 48 49 50 49 49 51 52 52 53 53 54 54 54 55 56 57 57 56 57 56 58
48 52 53 52 51 50 52 51 53 53 48 47 45 47 47 46 45 47 48 52 46 44 43 42 47 44 41 41 41 45 47 48 50 50 50 50 51 52 52 51 53 53 53 53 53 54 55 55 54 54 55 56 57 57
51 51 52 51 51 48 53 55 54 49 48 51 51 48 46 46 47 47 49 52 48 46 44 44 44 41 41 43 45 47 48 48 46 48 50 50 49 49 51 52 53 52 52 52 52 52 53 54 54 54 55 55 55 56
51 52 53 53 52 51 54 52 52 50 50 48 54 52 48 46 46 46 50 47 44 43 42 40 42 44 44 45 44 47 47 48 48 45 43 46 47 48 49 48 48 50 48 50 50 48 50 51 54 54 53 54 54 54
53 56 54 52 51 52 51 48 49 46 47 48 50 51 49 49 48 44 45 45 43 40 39 43 45 47 52 54 54 51 49 46 45 44 43 41 43 51 50 51 52 54 53 52 47 46 46 46 48 54 55 54 54 55
52 57 54 55 55 54 50 48 47 47 49 50 49 48 45 46 45 46 48 44 41 42 42 42 44 43 48 50 52 53 53 51 48 50 48 48 46 47 48 50 48 45 47 50 51 51 49 53 53 55 55 55 56 55
54 55 55 55 54 46 48 50 48 45 45 45 48 45 45 45 47 51 44 43 43 47 49 50 48 48 47 52 54 52 50 50 48 46 46 45 46 46 48 48 48 46 48 50 51 52 52 50 53 53 57 56 56 55
55 54 53 50 50 43 50 47 46 44 44 43 45 45 44 45 48 45 41 41 44 49 50 49 49 49 51 50 46 45 45 47 47 48 47 46 44 44 43 45 47 47 44 44 47 48 49 52 50 54 56 54 53 52
49 48 49 41 49 48 48 49 46 45 44 44 44 45 44 47 42 40 39 42 41 44 44 45 46 45 40 41 42 44 45 46 44 43 45 46 45 46 45 46 46 47 46 46 46 47 48 49 51 53 54 53 52 50
41 49 44 46 46 46 46 46 46 45 45 44 42 42 41 40 39 35 36 39 40 42 43 43 42 41 41 39 39 40 41 43 44 43 41 42 42 39 39 40 41 44 46 43 43 46 46 47 48 48 47 50 46 50
42 48 48 49 48 47 46 47 48 46 44 40 39 39 38 34 34 37 39 41 41 43 44 45 43 42 41 40 41 41 42 42 41 41 40 41 41 43 40 38 38 41 43 46 44 44 44 45 46 45 45 47 48 49
50 49 48 48 47 47 47 47 47 44 42 40 39 36 36 38 37 41 42 44 44 45 45 44 44 44 42 41 40 41 41 41 42 42 39 40 40 43 42 43 44 42 44 45 44 46 45 45 45 44 44 42 42 44
48 50 51 48 48 47 47 47 46 45 45 42 39 38 40 42 45 45 46 46 45 45 44 47 43 42 43 41 41 40 39 38 38 37 35 34 35 38 41 41 42 43 42 43 43 43 44 43 43 43 43 41 41 41
49 50 50 50 48 47 48 48 46 46 45 45 45 44 44 45 47 48 46 47 45 44 43 43 41 41 39 38 37 39 38 38 37 36 34 33 34 36 37 40 40 40 39 41 41 41 42 42 42 42 41 40 39 39
50 50 51 49 48 48 48 48 48 48 48 48 48 45 45 47 47 48 47 49 50 45 43 42 41 40 40 38 37 36 36 39 39 39 38 37 37 37 37 38 38 39 40 41 40 40 39 39 38 39 39 39 40 39
50 50 50 47 46 48 49 47 46 45 45 46 48 46 45 44 43 45 50 51 51 47 44 43 42 41 41 40 40 40 40 39 39 39 40 39 38 38 37 37 37 40 41 40 40 40 40 39 38 39 38 39 39 39
52 53 52 49 46 46 48 47 46 44 46 46 45 45 45 45 44 49 53 54 52 48 47 46 43 42 43 42 42 42 41 41 39 39 40 40 38 38 37 37 39 40 40 39 39 39 39 39 38 38 38 38 38 39
MSLP
1024.47 1023.84 1023.21 1022.68 1022.07 1021.65 1021.40 1021.02 1020.69 1020.35 1019.97 1019.64 1019.30 1018.81 1018.36 1018.05 1018.02 1018.61 1018.78 1018.75 1018.92 1018.54 1017.37 1016.81 1016.56 1016.39 1016.21 1015.95 1015.80 1014.60 1013.72 1012.84 1012.27 1012.11 1011.83 1011.09 1009.73 1008.47 1007.59 1006.82 1006.47 1006.41 1006.24 1005.65 1004.23 1003.29 1003.76 1002.47 1000.65 1001.42 1003.54 1002.29 1001.27 1000.18
1023.69 1023.01 1022.35 1021.81 1021.30 1020.96 1020.57 1020.23 1019.93 1019.63 1019.20 1018.93 1018.51 1018.18 1017.78 1017.60 1017.45 1017.83 1018.49 1018.18 1018.22 1018.52 1017.01 1016.01 1015.68 1015.35 1015.52 1015.37 1015.98 1015.41 1014.96 1014.66 1013.79 1013.53 1013.07 1012.36 1011.44 1010.04 1009.23 1008.09 1007.41 1007.77 1007.75 1007.46 1006.51 1005.86 1005.44 1004.93 1004.89 1004.81 1004.28 1003.31 1001.71 1000.67
1022.79 1022.14 1021.63 1021.07 1020.46 1020.11 1019.74 1019.41 1019.07 1018.80 1018.39 1018.11 1017.98 1017.72 1017.36 1017.11 1017.01 1017.19 1017.69 1017.88 1018.12 1017.86 1016.79 1016.11 1014.53 1013.85 1013.97 1013.89 1014.43 1015.06 1014.54 1013.89 1013.77 1013.73 1013.89 1013.47 1012.61 1011.66 1010.77 1009.86 1008.95 1008.36 1007.89 1007.68 1007.15 1006.50 1005.98 1005.39 1005.19 1004.99 1004.46 1003.44 1002.16 1001.00
1022.19 1021.60 1021.04 1020.33 1019.64 1019.25 1018.87 1018.39 1018.08 1017.87 1017.57 1017.54 1017.43 1017.09 1016.73 1016.49 1016.45 1016.50 1017.01 1017.09 1017.48 1017.54 1017.18 1015.35 1014.09 1013.58 1012.79 1013.01 1013.67 1013.80 1013.29 1013.59 1013.81 1014.09 1014.44 1014.21 1013.76 1012.47 1011.63 1010.74 1010.13 1009.21 1008.55 1008.20 1007.85 1007.17 1005.79 1005.17 1005.32 1005.20 1004.08 1003.19 1002.06 1000.79
1021.56 1020.95 1020.24 1019.60 1019.05 1018.63 1018.22 1017.81 1017.58 1017.36 1017.21 1017.07 1016.83 1016.51 1016.14 1016.05 1016.06 1016.09 1016.19 1016.29 1016.46 1017.13 1016.65 1015.38 1013.93 1012.41 1012.20 1012.39 1012.61 1012.76 1013.18 1013.80 1014.23 1014.65 1014.88 1014.67 1013.63 1012.93 1011.90 1011.07 1009.93 1008.92 1008.49 1008.66 1008.47 1008.12 1007.91 1006.92 1005.86 1005.23 1004.51 1003.57 1002.73 1001.77
1021.01 1020.26 1019.51 1018.93 1018.59 1018.15 1017.61 1017.17 1016.95 1016.82 1016.59 1016.48 1016.27 1015.82 1015.60 1015.63 1015.56 1015.87 1016.02 1015.97 1015.80 1016.39 1016.52 1015.33 1013.91 1012.46 1011.92 1011.65 1011.87 1012.22 1012.56 1013.31 1013.73 1014.01 1014.26 1013.95 1012.90 1012.83 1012.59 1011.55 1009.57 1008.81 1008.66 1008.51 1008.45 1008.03 1007.69 1006.94 1005.96 1005.46 1005.13 1004.10 1003.05 1002.14
1020.49 1019.71 1018.99 1018.49 1018.07 1017.60 1017.27 1016.87 1016.57 1016.33 1016.15 1016.01 1015.70 1015.35 1015.27 1015.13 1015.14 1015.61 1015.70 1015.67 1015.58 1015.85 1015.97 1015.33 1014.26 1012.64 1011.61 1011.35 1011.53 1011.63 1011.74 1012.23 1012.70 1013.48 1013.60 1013.30 1012.92 1012.77 1012.69 1011.59 1009.58 1008.86 1008.33 1007.47 1007.57 1008.00 1007.38 1006.75 1006.12 1005.57 1005.20 1004.28 1003.23 1002.35
1020.05 1019.30 1018.59 1018.17 1017.79 1017.32 1016.88 1016.39 1016.06 1015.82 1015.66 1015.55 1015.27 1014.96 1014.63 1014.58 1014.76 1015.11 1015.15 1015.27 1015.42 1015.87 1016.10 1015.75 1014.34 1013.10 1011.65 1011.83 1011.85 1011.71 1011.80 1012.10 1012.08 1012.34 1012.69 1012.71 1012.49 1012.05 1011.46 1009.25 1008.81 1008.07 1008.06 1007.60 1007.03 1007.29 1007.34 1006.32 1005.81 1005.66 1005.31 1004.41 1003.41 1002.65
1019.50 1018.82 1018.23 1017.86 1017.46 1016.93 1016.33 1015.99 1015.58 1015.38 1015.20 1015.04 1014.87 1014.77 1014.79 1014.78 1014.83 1014.89 1014.79 1015.11 1015.43 1016.23 1015.99 1015.67 1014.74 1013.57 1012.32 1012.13 1011.98 1011.76 1011.85 1012.14 1011.66 1011.74 1011.69 1011.80 1011.36 1010.63 1007.65 1007.73 1007.60 1007.34 1007.40 1007.12 1006.77 1006.47 1006.23 1006.33 1005.84 1005.43 1005.25 1004.63 1004.03 1003.27
1018.98 1018.38 1017.85 1017.51 1016.97 1016.33 1015.95 1015.67 1015.31 1015.12 1014.91 1014.63 1014.65 1014.81 1014.84 1014.86 1014.72 1015.07 1015.47 1015.75 1015.92 1016.10 1016.10 1015.46 1014.67 1014.01 1013.27 1012.57 1012.26 1012.38 1011.88 1011.59 1011.51 1010.85 1010.46 1010.34 1008.69 1007.20 1006.48 1006.37 1006.73 1006.65 1006.46 1006.30 1006.37 1006.42 1005.80 1005.37 1005.81 1005.43 1005.15 1004.81 1004.36 1003.63
1018.54 1017.94 1017.34 1016.96 1016.49 1015.98 1015.65 1015.24 1014.93 1014.82 1014.56 1014.63 1014.68 1014.87 1014.97 1014.93 1015.03 1015.13 1015.41 1015.80 1015.88 1015.94 1015.68 1015.27 1014.81 1014.33 1013.67 1013.16 1012.62 1012.50 1012.12 1011.76 1011.38 1010.61 1010.20 1009.07 1007.17 1005.47 1004.67 1004.57 1004.54 1004.75 1005.25 1005.33 1005.26 1005.03 1004.95 1004.91 1004.92 1005.14 1004.93 1004.65 1004.11 1003.35
1018.13 1017.52 1016.92 1016.48 1015.99 1015.64 1015.06 1014.63 1014.65 1014.73 1014.68 1014.76 1014.86 1014.86 1015.01 1014.97 1014.75 1014.91 1014.88 1015.34 1015.43 1015.14 1014.91 1014.90 1014.45 1014.13 1013.71 1013.26 1012.91 1012.46 1012.04 1011.94 1011.14 1010.72 1009.79 1008.19 1005.82 1005.06 1004.63 1004.37 1004.18 1004.19 1004.10 1004.07 1004.04 1003.94 1003.78 1004.00 1004.28 1004.60 1004.54 1004.29 1003.73 1003.11
1017.59 1017.07 1016.41 1015.95 1015.43 1015.02 1014.42 1014.33 1014.33 1014.39 1014.51 1014.56 1014.67 1014.45 1014.50 1014.48 1014.09 1014.07 1013.98 1013.71 1013.91 1014.20 1014.29 1014.20 1013.93 1013.61 1013.54 1013.49 1013.03 1012.72 1012.32 1011.79 1011.38 1010.47 1009.15 1007.12 1005.62 1004.81 1004.09 1003.40 1003.11 1003.49 1003.63 1003.50 1003.37 1003.31 1003.08 1002.99 1003.33 1003.67 1003.77 1003.33 1002.97 1002.56
1017.03 1016.50 1015.87 1015.31 1014.80 1014.41 1014.00 1014.06 1013.99 1014.23 1014.25 1014.18 1014.04 1013.96 1014.01 1014.00 1013.78 1013.54 1013.15 1012.76 1012.42 1012.99 1013.39 1013.55 1013.19 1013.07 1012.95 1013.11 1012.87 1012.63 1012.30 1011.95 1011.11 1010.28 1008.91 1006.81 1005.08 1003.28 1001.67 1000.54 1001.15 1002.22 1002.84 1002.82 1002.75 1002.68 1002.30 1002.17 1002.38 1002.63 1002.55 1002.36 1001.97 1001.48
1016.46 1015.82 1015.21 1014.59 1014.21 1013.99 1013.65 1013.66 1013.83 1014.03 1013.99 1013.87 1013.81 1014.59 1014.29 1013.80 1013.35 1012.61 1012.00 1011.83 1011.94 1012.43 1012.89 1012.95 1012.63 1012.70 1012.70 1012.83 1012.85 1012.48 1011.91 1011.05 1010.66 1009.78 1008.49 1005.97 1004.36 1002.79 1001.18 1000.82 1000.78 1001.46 1002.03 1002.23 1001.99 1001.71 1001.34 1001.31 1001.57 1001.73 1001.55 1001.29 1000.92 1000.65
1015.92 1015.20 1014.73 1014.44 1014.00 1013.46 1013.23 1013.55 1013.93 1013.85 1013.73 1013.79 1014.02 1014.48 1014.16 1013.81 1013.18 1012.24 1011.75 1011.47 1011.75 1012.10 1012.27 1012.31 1011.92 1011.76 1011.89 1011.96 1012.01 1011.63 1011.34 1010.63 1009.37 1008.53 1007.15 1006.31 1004.48 1003.14 1002.03 1001.30 1001.13 1001.21 1001.20 1000.93 1000.87 1000.66 1000.75 1000.75 1000.97 1001.15 1001.28 1000.75 1000.37 1000.38
1015.45 1014.93 1014.38 1014.18 1013.84 1013.26 1013.35 1013.68 1013.65 1013.59 1013.63 1013.91 1014.39 1014.24 1014.39 1014.34 1013.93 1013.18 1012.48 1011.73 1010.98 1011.38 1011.63 1011.24 1011.27 1011.39 1011.31 1011.37 1011.18 1011.33 1010.46 1010.08 1009.63 1008.01 1007.03 1006.44 1005.71 1004.38 1003.43 1002.61 1001.97 1001.32 1001.04 1000.73 1000.31 1000.57 1000.46 1000.38 1000.96 1000.95 1000.87 1000.86 1000.92 1000.32
1015.32 1014.32 1014.30 1014.34 1014.04 1013.67 1013.56 1013.61 1013.53 1013.60 1013.86 1014.17 1014.29 1014.18 1014.13 1014.03 1013.86 1013.43 1012.73 1011.94 1011.59 1011.71 1011.87 1012.01 1011.86 1011.97 1012.14 1012.20 1011.93 1011.69 1011.13 1010.57 1009.81 1009.14 1008.25 1007.39 1006.39 1005.72 1004.68 1003.75 1002.94 1002.24 1001.93 1001.78 1001.51 1001.31 1001.41 1001.63 1001.34 1000.96 1000.91 1001.64 1001.53 1001.58
1015.09 1014.62 1013.99 1014.23 1014.35 1014.47 1013.93 1013.44 1013.27 1013.68 1013.91 1014.03 1014.02 1013.97 1014.15 1014.25 1014.05 1013.73 1013.23 1012.69 1012.37 1012.13 1012.11 1012.49 1013.26 1013.79 1013.75 1013.27 1012.81 1012.11 1011.52 1011.01 1010.59 1010.21 1009.55 1008.65 1007.98 1007.26 1006.31 1005.45 1004.83 1004.21 1003.75 1003.48 1003.13 1002.60 1002.57 1002.35 1002.38 1002.31 1002.54 1001.97 1002.15 1002.47
1014.28 1013.67 1013.41 1013.57 1014.00 1014.05 1013.79 1013.61 1013.32 1013.75 1014.11 1014.07 1013.82 1014.17 1014.47 1015.00 1014.84 1014.44 1014.15 1013.99 1013.82 1013.70 1014.31 1014.86 1015.19 1014.80 1014.20 1013.61 1013.12 1012.59 1012.15 1011.55 1011.11 1011.18 1010.83 1010.07 1009.57 1008.77 1008.11 1007.60 1006.89 1006.29 1005.71 1004.99 1004.71 1004.26 1004.27 1003.96 1003.78 1003.73 1003.63 1002.92 1003.25 1003.37
1013.73 1013.33 1013.34 1013.44 1013.78 1013.96 1014.15 1014.28 1014.25 1014.77 1014.75 1014.63 1014.59 1014.72 1015.12 1015.20 1015.47 1015.57 1015.52 1015.33 1015.49 1016.30 1016.76 1016.79 1016.19 1015.01 1014.15 1013.42 1013.03 1012.79 1012.43 1012.29 1012.16 1011.95 1011.95 1011.55 1010.81 1010.07 1009.76 1009.28 1008.56 1007.85 1007.51 1007.18 1007.12 1006.63 1005.85 1005.43 1004.96 1004.35 1004.51 1004.38 1004.41 1004.65
1013.85 1013.29 1013.31 1013.32 1013.51 1013.93 1014.12 1014.47 1014.67 1014.91 1015.01 1015.40 1015.82 1015.65 1016.07 1016.27 1016.59 1016.43 1016.65 1016.88 1017.77 1018.00 1017.86 1017.31 1016.73 1015.86 1015.05 1014.46 1014.16 1013.80 1013.40 1012.93 1012.79 1012.79 1012.43 1011.94 1011.77 1011.49 1011.15 1010.71 1010.11 1010.01 1009.54 1008.87 1008.31 1007.93 1007.45 1006.67 1005.77 1005.09 1004.65 1004.81 1005.15 1005.41
1013.66 1013.51 1013.53 1013.50 1013.71 1014.05 1014.59 1014.37 1014.74 1015.21 1015.57 1015.82 1015.93 1016.52 1016.85 1017.03 1017.11 1016.98 1017.83 1018.54 1018.66 1018.35 1017.92 1017.44 1017.04 1016.19 1015.79 1015.29 1014.77 1014.51 1014.23 1013.97 1013.98 1013.95 1013.86 1013.57 1013.19 1012.77 1012.39 1011.96 1011.62 1011.32 1010.87 1010.40 1009.70 1008.94 1008.39 1007.77 1006.97 1006.36 1006.23 1006.15 1005.81 1005.74
1013.37 1013.86 1014.00 1014.26 1014.57 1014.66 1014.57 1014.75 1015.05 1015.27 1015.55 1015.85 1015.91 1016.62 1017.10 1017.31 1017.50 1017.90 1019.08 1019.47 1019.03 1018.15 1017.86 1017.77 1017.50 1017.04 1016.62 1016.36 1016.25 1015.99 1015.66 1015.17 1015.03 1014.88 1014.86 1014.68 1014.39 1014.02 1013.56 1013.17 1012.64 1012.34 1012.05 1011.43 1010.93 1010.31 1009.73 1009.21 1008.42 1007.65 1007.11 1007.35 1007.39 1007.20
1014.47 1015.04 1014.85 1015.01 1015.03 1015.13 1014.96 1014.80 1015.15 1015.29 1015.81 1016.05 1016.37 1017.07 1017.64 1017.75 1018.61 1019.55 1020.05 1020.07 1019.52 1019.03 1018.65 1018.32 1018.11 1018.08 1018.07 1017.89 1017.53 1017.18 1016.73 1016.48 1016.37 1016.31 1016.19 1015.69 1015.41 1014.91 1014.47 1014.03 1013.72 1013.35 1012.95 1012.49 1012.01 1011.47 1010.90 1010.44 1010.08 1009.47 1009.05 1009.09 1009.01 1008.99
1015.17 1015.46 1015.70 1015.61 1015.63 1015.60 1015.35 1015.19 1015.19 1015.48 1015.95 1016.71 1017.47 1018.01 1018.47 1018.95 1019.56 1020.28 1020.42 1019.98 1019.73 1019.25 1018.99 1018.89 1018.97 1018.88 1018.87 1018.67 1018.61 1018.28 1018.09 1017.54 1017.19 1017.11 1017.31 1016.97 1016.69 1016.40 1016.05 1015.59 1015.05 1014.34 1013.69 1013.34 1012.89 1012.49 1012.05 1011.64 1011.23 1010.89 1010.70 1010.56 1010.51 1010.51
1015.47 1015.44 1015.57 1015.63 1015.63 1015.61 1015.51 1015.26 1015.32 1015.76 1016.61 1017.44 1018.08 1018.50 1018.95 1019.41 1019.88 1020.04 1019.63 1019.45 1019.47 1019.05 1018.80 1018.67 1018.78 1018.92 1019.09 1019.10 1018.93 1018.72 1018.48 1018.03 1017.89 1018.00 1017.91 1017.69 1017.36 1017.08 1016.89 1016.63 1016.10 1015.55 1014.46 1013.70 1013.35 1013.06 1012.94 1012.65 1012.43 1012.38 1012.34 1012.13 1012.09 1012.07
1015.14 1015.31 1015.51 1015.68 1015.61 1015.63 1015.73 1015.61 1015.90 1016.49 1017.09 1017.76 1018.33 1018.81 1019.02 1019.13 1019.33 1019.25 1018.99 1018.67 1018.71 1018.68 1018.60 1018.53 1018.55 1018.79 1019.09 1019.21 1019.21 1019.14 1018.96 1018.67 1018.33 1018.10 1018.05 1017.95 1017.69 1017.53 1017.21 1016.76 1016.20 1015.52 1014.97 1014.51 1014.01 1013.56 1013.55 1013.59 1013.56 1013.48 1013.50 1013.64 1013.60 1013.33
1015.13 1015.05 1015.21 1015.42 1015.57 1015.69 1015.72 1015.83 1016.25 1016.47 1016.83 1017.32 1018.01 1018.56 1018.73 1018.78 1018.55 1018.48 1018.37 1018.39 1018.09 1018.31 1018.99 1019.19 1019.41 1019.37 1019.47 1019.60 1019.60 1019.62 1019.61 1019.43 1019.23 1019.03 1018.96 1018.94 1018.65 1018.26 1017.78 1017.29 1016.79 1016.29 1015.83 1015.37 1014.96 1014.75 1014.50 1014.45 1014.49 1014.49 1014.46 1014.39 1014.30 1014.13
1014.62 1014.63 1015.06 1015.23 1015.45 1015.55 1015.61 1015.76 1016.07 1016.35 1016.78 1017.13 1017.60 1018.27 1018.50 1018.35 1018.13 1017.89 1018.07 1018.12 1018.64 1018.97 1019.27 1019.41 1019.63 1019.77 1020.19 1020.19 1020.36 1020.26 1020.10 1019.96 1019.88 1019.81 1019.78 1019.73 1019.75 1019.22 1018.49 1017.94 1017.55 1017.14 1016.69 1016.37 1016.20 1015.93 1015.56 1015.42 1015.36 1015.28 1015.21 1015.11 1015.06 1014.92
1013.84 1014.24 1014.61 1015.00 1015.27 1015.55 1015.70 1015.90 1016.11 1016.42 1016.84 1017.25 1017.57 1018.19 1018.47 1018.45 1018.17 1018.03 1018.11 1018.21 1018.50 1018.90 1019.38 1019.84 1020.05 1020.05 1020.20 1020.33 1020.45 1020.44 1020.45 1020.28 1020.03 1019.90 1019.79 1019.73 1019.60 1019.37 1019.00 1018.59 1018.23 1017.87 1017.51 1017.23 1017.04 1016.92 1016.62 1016.43 1016.31 1016.14 1015.97 1015.86 1015.68 1015.46
1013.38 1013.68 1014.05 1014.76 1015.40 1015.82 1015.97 1016.43 1017.00 1017.39 1017.59 1017.74 1018.02 1018.20 1018.41 1018.51 1018.59 1018.47 1018.24 1018.39 1018.55 1019.03 1019.43 1019.70 1019.99 1020.16 1019.98 1019.87 1019.91 1019.96 1019.93 1020.19 1020.20 1020.08 1019.96 1019.93 1019.86 1019.70 1019.37 1018.98 1018.66 1018.39 1018.13 1017.88 1017.67 1017.49 1017.27 1017.07 1016.92 1016.76 1016.63 1016.43 1016.20 1015.98
1012.68 1012.75 1013.20 1014.13 1015.20 1015.59 1015.76 1016.05 1016.63 1017.32 1017.45 1017.65 1017.80 1017.89 1018.03 1018.13 1018.16 1018.23 1018.11 1018.11 1018.26 1018.63 1019.13 1019.52 1019.89 1019.99 1019.95 1019.89 1020.03 1020.17 1020.31 1020.39 1020.17 1020.21 1020.05 1019.95 1019.89 1019.84 1019.54 1019.28 1019.05 1018.81 1018.63 1018.43 1018.25 1018.03 1017.84 1017.63 1017.46 1017.25 1017.06 1016.83 1016.55 1016.30
Wind_Speed
21 21 21 21 22 21 20 20 20 19 19 18 18 18 17 15 6 5 4 5 4 3 7 10 12 8 3 2 2 6 7 6 5 7 4 3 3 4 3 3 4 2 2 3 3 5 3 23 7 10 6 8 9 9
22 22 22 22 22 21 20 20 20 19 19 18 18 18 17 16 9 7 2 1 3 4 7 3 6 10 8 13 4 3 3 2 3 3 3 2 3 3 4 2 5 4 4 3 1 5 4 4 6 4 6 8 10 9
23 22 22 22 22 21 20 21 20 19 19 18 18 18 17 15 10 9 3 2 1 2 6 1 11 12 9 15 8 3 3 5 1 3 2 1 2 2 3 3 4 5 4 2 3 3 12 5 6 12 13 12 15 12
23 22 22 22 21 20 19 20 19 18 18 17 16 16 16 12 9 7 3 3 2 1 4 7 4 7 4 6 9 12 11 1 2 3 1 0 1 1 2 3 1 3 5 3 3 7 11 5 14 15 19 18 17 18
22 22 21 20 20 19 19 18 18 18 17 16 15 16 14 9 7 3 3 4 4 2 3 6 9 8 2 6 9 10 9 4 2 1 2 3 2 1 3 2 3 3 2 2 1 5 4 9 13 14 15 17 18 16
22 19 20 19 18 18 17 17 17 16 16 14 14 15 12 8 8 2 1 0 5 5 2 4 4 7 5 5 7 6 6 4 4 5 4 3 4 3 2 3 6 3 1 4 1 5 8 11 11 5 11 16 16 15
19 19 20 18 17 17 16 16 16 15 14 13 12 12 12 10 2 3 3 3 2 3 2 4 4 5 5 2 1 1 2 4 5 4 4 4 3 5 3 6 10 14 14 17 11 8 15 4 8 13 11 16 14 11
19 19 19 18 17 17 15 14 14 13 12 12 11 11 7 2 5 3 3 2 4 2 0 3 5 5 4 4 4 1 2 1 1 5 1 3 1 3 6 11 16 19 16 16 16 11 13 14 9 10 8 13 13 11
18 18 19 19 18 16 15 15 15 14 11 10 9 2 1 2 1 1 5 8 2 1 2 2 2 3 5 1 2 3 2 0 1 4 4 5 4 8 13 13 13 9 8 8 8 9 7 6 9 10 7 9 9 10
18 18 20 18 18 16 17 16 15 13 10 4 1 0 1 1 9 8 2 2 2 1 2 3 2 3 3 3 2 3 2 2 2 5 3 4 14 20 19 13 9 10 14 14 13 12 13 11 8 7 8 6 10 12
20 18 20 18 17 17 17 16 12 10 2 1 1 2 0 6 0 2 1 1 1 2 3 2 3 2 3 2 2 3 3 2 3 3 2 4 6 9 15 20 20 19 14 13 13 13 10 8 9 8 7 7 12 15
19 19 21 20 19 18 16 13 8 2 1 2 1 1 1 1 1 2 1 1 3 3 2 2 2 3 3 2 2 1 2 2 5 4 4 5 4 4 5 7 6 4 7 15 16 18 18 17 13 7 7 9 14 14
21 21 21 21 20 18 15 10 5 6 3 1 1 1 1 0 3 5 6 2 3 4 3 3 2 2 1 0 2 2 2 4 5 3 4 5 7 11 15 17 20 9 9 8 7 10 17 19 15 9 10 12 13 12
21 21 21 20 18 13 12 7 1 4 0 2 3 7 5 6 4 3 5 5 2 2 4 2 1 2 2 1 2 2 1 2 3 3 5 8 21 22 16 16 18 13 10 10 11 13 17 18 13 9 10 13 11 10
23 23 21 12 9 10 10 4 6 2 1 3 3 5 4 4 4 6 5 3 1 3 3 2 2 1 2 2 1 3 3 3 1 4 5 11 16 15 11 7 6 8 8 10 11 10 11 11 10 8 6 7 7 5
22 18 1 5 13 14 2 7 3 2 1 3 5 4 4 3 7 8 9 7 4 3 2 1 1 2 2 1 2 4 6 4 3 5 6 8 18 15 15 13 2 7 9 12 8 9 9 8 8 7 3 2 4 5
17 4 2 14 18 11 11 1 1 2 2 3 2 2 3 3 5 4 3 6 1 0 3 2 6 6 3 4 2 1 9 3 9 9 7 8 17 17 17 14 14 15 13 10 7 9 7 8 6 8 8 6 4 7
5 4 12 14 14 3 2 2 1 2 3 0 2 5 3 2 3 4 6 6 5 4 4 3 2 7 6 7 6 5 5 6 7 8 12 15 16 13 14 18 19 17 17 14 13 13 10 7 8 8 13 10 8 6
11 14 21 17 4 2 2 1 3 2 3 1 2 2 1 2 2 3 4 7 4 2 3 4 6 4 5 4 5 7 7 6 3 5 9 14 16 17 15 15 16 17 17 16 16 10 8 11 10 9 7 8 8 8
18 16 13 6 6 2 2 3 3 3 1 3 2 1 4 1 4 3 7 6 4 4 8 7 4 4 2 4 3 4 6 5 4 6 6 8 9 15 15 13 10 12 13 16 13 18 12 9 5 6 5 9 8 6
7 1 5 3 2 2 2 3 4 2 2 3 3 4 3 3 5 6 6 5 6 5 5 4 6 5 5 8 8 7 9 6 5 4 3 5 7 9 11 12 13 13 13 11 10 12 15 10 6 6 5 4 4 1
3 6 1 1 2 3 2 0 3 1 3 1 5 3 2 3 5 4 3 6 4 3 3 4 6 4 8 12 9 9 9 8 8 8 9 8 11 10 9 9 9 10 11 11 10 10 9 10 10 6 7 7 8 7
6 2 2 3 1 4 2 1 3 2 2 1 2 3 1 0 2 3 4 3 2 3 3 5 7 4 4 7 11 12 10 9 8 7 7 5 6 6 7 8 8 8 8 8 9 9 10 12 10 8 6 6 8 9
2 3 3 3 3 3 2 3 2 2 2 2 1 4 2 2 3 4 3 4 4 5 7 10 8 7 7 10 8 7 8 6 8 9 9 7 7 8 5 6 8 8 5 4 6 7 8 10 12 8 9 10 9 10
4 7 4 5 3 5 4 4 2 3 3 3 3 4 3 2 3 3 1 3 3 4 4 6 7 6 4 4 5 6 8 6 7 9 8 8 7 7 9 7 7 8 7 7 8 9 9 9 9 10 11 11 12 13
5 3 4 1 3 2 3 4 4 3 3 3 3 2 3 3 3 1 3 3 3 3 4 3 3 3 4 3 3 5 5 4 4 8 5 6 6 4 5 6 8 9 9 5 5 8 9 9 11 15 14 15 16 14
1 3 1 2 1 1 4 2 1 4 3 2 1 2 2 3 0 3 3 3 3 3 3 3 2 3 3 1 2 3 4 4 5 3 2 4 4 5 4 5 7 7 8 9 5 5 5 6 9 10 10 11 11 11
2 2 2 1 1 1 2 2 2 2 2 2 3 2 3 4 5 4 5 3 3 3 2 3 4 4 4 3 2 3 4 4 4 4 1 3 4 5 7 6 6 14 8 8 7 7 7 7 8 8 10 8 6 7
2 2 3 2 1 1 0 2 2 2 3 3 4 3 3 2 2 2 2 2 2 5 4 5 4 3 5 5 5 4 4 4 6 9 10 7 6 6 7 6 7 7 6 6 12 11 12 8 6 6 7 5 4 5
4 4 3 2 2 2 2 3 3 1 2 3 4 3 3 2 3 1 1 2 3 3 3 4 3 4 3 3 3 4 4 4 3 3 3 4 4 5 5 7 7 6 5 6 6 6 10 7 7 5 6 5 4 4
4 3 2 2 2 1 2 2 3 4 3 3 3 4 3 1 4 4 3 2 4 5 5 4 3 2 4 4 3 3 1 3 4 4 3 3 4 5 5 5 5 5 5 5 6 5 5 5 5 6 6 7 7 7
4 6 5 4 2 2 3 3 2 2 1 2 1 2 1 1 1 2 1 2 4 4 3 5 4 1 1 1 1 2 5 3 1 1 5 4 4 4 4 5 5 5 5 6 5 5 6 7 6 6 6 7 7 7
1 3 3 5 4 5 4 4 3 2 2 2 3 4 3 4 3 3 1 0 3 5 6 4 4 3 3 2 5 4 4 2 2 1 4 4 5 6 4 4 4 5 6 5 6 6 7 8 7 8 8 8 8 7
Wind_Direction
298 298 298 297 296 297 298 297 298 300 301 301 302 303 306 309 285 145 235 191 171 237 277 267 261 260 287 218 273 300 343 352 342 29 19 338 351 5 328 10 351 53 27 351 314 80 66 344 28 64 297 299 317 328
298 297 297 298 298 299 299 298 297 298 298 299 297 298 301 305 289 153 240 217 158 218 260 240 236 233 231 239 206 274 227 260 254 28 349 343 340 342 338 1 350 31 113 228 33 136 199 353 78 337 318 291 334 319
299 301 304 303 301 301 300 300 298 298 297 297 300 301 302 305 297 195 195 210 90 274 282 279 247 261 231 228 184 175 277 233 271 175 203 271 347 355 5 3 309 357 44 34 41 332 337 243 4 -0 348 336 324 329
307 309 309 306 303 302 300 297 295 295 296 299 300 301 299 303 299 214 173 180 151 225 276 280 297 277 203 158 179 207 230 62 63 61 56 320 294 336 281 276 262 253 343 327 347 332 342 311 349 341 333 340 337 337
313 319 315 308 306 308 308 306 303 302 304 306 305 299 301 306 295 270 194 199 185 192 273 279 291 267 194 196 197 207 214 159 130 78 104 249 265 345 312 328 254 214 219 82 224 261 214 284 311 322 336 337 331 335
324 319 315 313 314 315 312 310 309 310 308 308 305 298 298 294 281 121 287 245 192 164 267 291 283 292 307 217 194 185 185 163 159 156 201 235 255 111 277 268 267 243 128 144 265 286 268 272 285 317 330 321 323 324
321 318 316 316 319 318 319 316 316 314 313 311 307 301 295 279 200 166 194 136 85 122 252 287 286 274 288 11 11 161 121 182 149 171 202 195 227 139 169 244 260 287 297 298 298 311 300 264 304 324 316 314 313 316
324 320 318 323 327 326 324 319 317 317 321 317 314 315 316 256 148 168 198 141 123 119 236 275 274 320 337 358 338 27 172 82 258 190 86 181 43 152 243 227 239 251 253 262 269 260 252 283 304 306 315 317 322 336
322 320 322 327 328 324 317 316 319 318 315 319 310 307 43 48 99 287 144 134 68 90 243 234 260 273 347 260 262 328 79 149 236 196 208 145 198 220 227 206 220 229 200 236 245 266 262 255 287 303 306 312 319 318
321 321 323 326 325 317 317 321 320 319 315 324 119 98 53 262 128 112 67 63 30 86 226 257 294 280 358 350 8 358 316 260 305 246 106 206 243 246 244 225 204 207 216 225 249 257 267 272 254 280 290 301 303 298
326 323 321 323 319 316 318 316 316 325 308 81 63 68 322 111 152 47 87 252 179 247 213 249 245 262 307 270 280 167 296 301 261 298 216 255 271 241 243 242 239 230 207 209 219 232 230 242 266 271 280 288 298 294
323 319 319 320 318 314 309 305 317 37 190 173 217 159 138 239 57 292 310 261 228 270 199 209 247 209 249 290 266 256 265 214 253 333 251 254 261 279 293 290 296 303 247 222 219 234 246 244 235 235 252 271 278 274
324 322 318 317 315 310 300 298 295 225 288 152 183 184 160 305 336 20 332 306 280 191 207 208 214 242 209 277 277 291 274 257 333 252 262 261 287 277 270 265 263 237 231 225 229 233 242 245 245 224 249 256 258 264
323 320 317 314 309 298 295 305 253 139 154 53 2 9 23 6 339 318 305 299 325 138 161 190 217 226 170 152 347 265 294 281 278 267 265 289 300 295 286 263 228 217 218 229 230 247 235 223 228 227 232 242 248 255
326 322 316 295 312 311 303 289 171 161 79 48 26 22 350 304 272 261 263 290 89 119 140 172 249 45 34 36 334 294 291 271 302 278 265 307 334 343 3 22 146 186 216 244 242 228 206 196 205 240 256 247 228 219
328 319 4 340 332 328 230 128 166 197 72 64 46 359 308 350 344 4 1 358 159 156 127 193 199 236 87 129 332 347 336 331 272 314 303 338 343 359 14 29 153 212 230 245 230 193 188 180 190 182 188 146 113 151
322 232 19 3 349 350 151 53 140 45 87 54 319 226 226 259 257 286 318 316 37 91 1 12 18 29 305 359 344 333 9 360 11 12 337 19 16 14 16 23 31 29 35 41 72 138 123 104 126 117 78 40 55 94
246 287 333 339 345 320 177 201 344 68 29 314 50 304 330 246 307 338 331 346 19 7 21 33 337 23 19 19 21 350 6 24 21 17 10 11 15 15 14 21 26 27 37 37 45 50 58 93 89 71 64 46 34 36
283 298 298 309 328 348 347 262 136 177 223 178 306 325 41 307 296 275 353 357 350 2 51 32 55 11 345 332 331 343 338 343 330 347 14 14 15 20 12 16 26 34 37 26 24 24 39 51 55 51 52 61 61 20
292 270 264 257 174 31 350 330 42 112 161 253 95 14 91 22 307 345 22 2 9 24 24 33 16 316 289 287 280 317 353 327 11 32 1 360 16 22 14 19 15 25 26 21 27 28 17 22 38 49 29 55 52 50
318 80 93 145 102 85 84 360 34 79 328 43 337 1 37 10 23 10 16 352 33 31 14 343 325 312 328 29 25 16 21 16 36 43 341 6 347 25 36 20 20 26 28 25 30 12 12 4 339 19 32 25 65 17
282 344 43 234 51 36 59 324 138 295 84 309 78 17 345 356 354 6 332 34 42 338 343 313 321 313 12 21 8 19 12 26 37 39 23 28 32 25 23 21 38 36 19 10 13 20 5 1 358 13 28 36 45 52
326 67 4 18 293 54 272 62 72 48 95 117 117 96 212 22 315 321 57 12 311 294 305 0 343 326 11 9 18 18 12 27 35 27 19 16 24 12 23 30 28 28 29 21 3 9 11 360 358 4 25 41 55 44
326 38 32 27 37 289 3 38 29 66 67 24 95 102 67 56 352 59 45 338 293 323 3 7 8 1 11 21 21 11 357 20 41 35 22 22 22 7 2 8 14 15 355 336 3 6 7 5 352 13 53 47 43 57
55 332 49 345 19 356 343 353 39 53 39 17 58 73 49 36 64 59 356 277 301 303 314 348 7 13 33 349 9 15 9 35 53 53 13 13 15 20 15 12 15 20 360 10 11 9 4 12 25 37 52 48 55 52
64 290 85 46 299 17 332 344 1 30 57 71 56 75 56 84 84 167 250 252 267 283 311 330 340 342 17 0 17 13 336 342 35 51 6 3 10 9 352 8 6 358 353 349 5 12 10 16 33 42 40 43 53 58
113 276 256 224 224 336 313 304 10 69 66 70 59 64 78 73 150 249 271 235 228 255 268 283 228 169 140 57 29 13 354 19 78 108 330 358 11 15 21 14 354 319 316 347 358 24 44 48 53 59 58 44 45 55
199 158 190 307 295 180 281 336 57 60 128 149 86 78 136 166 200 228 219 248 220 242 328 16 72 108 112 99 74 36 15 5 16 22 316 5 13 13 359 350 343 345 352 4 9 32 44 60 69 60 63 63 44 24
212 231 114 302 311 312 318 119 156 231 170 120 126 171 194 231 225 224 269 302 312 107 93 88 37 70 65 49 45 40 34 26 45 41 27 3 353 353 348 344 349 353 352 12 30 44 53 58 60 69 64 51 23 33
244 163 150 200 191 196 239 160 172 149 80 111 115 71 31 337 263 258 49 67 109 116 122 120 112 112 131 110 83 33 11 29 42 83 53 5 313 300 334 354 358 355 354 21 27 15 17 32 28 28 35 32 30 34
128 119 123 157 209 221 141 76 48 61 56 76 86 106 170 269 328 360 90 113 123 117 106 104 88 119 136 162 161 141 24 338 7 25 41 21 7 359 351 355 351 355 8 24 29 30 33 31 31 30 27 30 22 24
161 180 162 139 136 116 100 98 95 53 42 65 84 82 81 81 185 274 193 124 111 115 142 143 139 178 264 303 172 161 138 156 231 342 31 14 355 347 357 5 4 2 10 17 16 18 24 29 23 24 21 20 12 10
216 148 129 113 126 181 213 137 128 117 135 153 201 188 196 159 199 196 85 84 148 156 170 164 129 123 89 96 161 139 132 177 237 63 33 352 339 345 1 10 10 11 15 16 16 16 21 23 17 11 4 356 351 356